Zurück zum Katalog

STARLINK-37133

AktivKommunikationVLEO
NORAD 68265·PAYLOAD·🇺🇸 United States

Gestartet Mar 19, 2026 von Vandenberg Space Force Base

Loading…

Nächste Überflüge (nächste 24 Stunden)

TLE

AktuellSource: CelesTrak SupGP

Epoche: Sep 14, 2026, 21:07 UTC

1 68265C 26055D   26257.88034722 -.00050013  00000+0 -14771-2 0  2570
2 68265  53.1570 157.8047 0000837  98.0534 306.4983 15.34428465    15

Verfolge STARLINK-37133 in Echtzeit mit AllMySat

Download on the App Store